Location: site
(53.0000°N, 23.0500°E)
Time: 16:42:39
(UTC+01:00)

SAOCOM 1-A - Pass Details

Date: 20 January 2020
Orbit: 621 x 623 km, 97.9° (Epoch: 25 February)

Event Time Altitude Azimuth Distance (km) Brightness Sun altitude
Exits shadow 18:08:32 16° 13° (NNE) 1,667 ? -20.4°
Maximum altitude 18:12:04 83° 286° (WNW) 635 ? -20.9°
Drops below altitude 10° 18:16:24 10° 199° (SSW) 1,990 ? -21.5°
Sets 18:18:34 0° 199° (SSW) 2,891 ? -21.9°
